This is the latest recevied weather packets stored in our database for station/object K4AGR-13. If no packets are shown the sender has not sent any weather packets the latest 10 day(s).
| Time | Temp. | Humidity | Pressure | Rain* | Wind** | Luminosity | Snow |
|---|---|---|---|---|---|---|---|
| 1777871217 | 12.22° C | 82% | 1018.9 hPa | 0 mm | - | 0 W/m² | - |
| 1777870915 | 12.22° C | 76% | 1018.7 hPa | 0 mm | - | 0 W/m² | - |
| 1777870612 | 11.67° C | 79% | 1018.8 hPa | 0 mm | - | 0 W/m² | - |
| 1777870312 | 11.67° C | 81% | 1019.1 hPa | 0 mm | - | 0 W/m² | - |
| 1777870010 | 11.67° C | 82% | 1018.9 hPa | 0 mm | - | 0 W/m² | - |
| 1777869706 | 11.11° C | 85% | 1018.8 hPa | 0 mm | - | 0 W/m² | - |
| 1777869404 | 11.67° C | 84% | 1018.6 hPa | 0 mm | - | 0 W/m² | - |
| 1777869101 | 11.67° C | 82% | 1018.6 hPa | 0 mm | - | 0 W/m² | - |
| 1777868798 | 11.67° C | 81% | 1018.8 hPa | 0 mm | - | 0 W/m² | - |
| 1777868495 | 12.22° C | 81% | 1018.5 hPa | 0 mm | - | 0 W/m² | - |
| 1777868190 | 11.67° C | 81% | 1018.7 hPa | 0 mm | - | 0 W/m² | - |
| 1777867887 | 11.67° C | 81% | 1018.6 hPa | 0 mm | - | 0 W/m² | - |
| 1777867584 | 11.67° C | 82% | 1018.6 hPa | 0 mm | - | 0 W/m² | - |
| 1777867281 | 12.22° C | 81% | 1018.6 hPa | 0 mm | - | 0 W/m² | - |
| 1777866978 | 12.78° C | 79% | 1018.6 hPa | 0 mm | - | 0 W/m² | - |
| 1777866674 | 12.78° C | 77% | 1018.7 hPa | 0 mm | - | 0 W/m² | - |
| 1777866372 | 12.22° C | 77% | 1018.8 hPa | 0 mm | - | 0 W/m² | - |
| 1777866069 | 12.78° C | 79% | 1018.6 hPa | 0 mm | - | 0 W/m² | - |
| 1777865767 | 12.78° C | 79% | 1018.7 hPa | 0 mm | - | 0 W/m² | - |
| 1777865463 | 12.78° C | 78% | 1018.7 hPa | 0 mm | - | 0 W/m² | - |
| 1777865160 | 12.78° C | 72% | 1018.7 hPa | 0 mm | - | 0 W/m² | - |
| 1777864857 | 12.78° C | 78% | 1018.5 hPa | 0 mm | - | 0 W/m² | - |
| 1777864554 | 12.78° C | 75% | 1018.8 hPa | 0 mm | - | 0 W/m² | - |
| 1777864250 | 12.78° C | 76% | 1018.6 hPa | 0 mm | - | 0 W/m² | - |
| 1777863948 | 12.78° C | 75% | 1018.4 hPa | 0 mm | - | 0 W/m² | - |
* Rain latest hour (hover to see other rain measurements)
** Current wind speed in m/s (hover to see current wind gust speed)